STARLINK-1464, 45751

Orbit data source: Space-Track

STARLINK-1464, 45751 is a payload satellite owned by SpaceX/Seattle (US) in LEO that was launched on Sat, 13 Jun 2020 UTC via an FALCON 9 launch vehicle from the Air Force Eastern Test Range (AFETR). Payload-class satellites include a variety of spacecraft equipped with specific instruments for various scientific and technological missions. These include communications satellites like Starlink; space stations such as the ISS; scientific satellites like the Hubble; Earth observation satellites from companies like Planet Labs, Umbra, and HawkEye 360; GPS; miniature CubeSats for education and research; and military/defense satellites.

Loading next visibility...
Identifier
45751, 2020-038X
Orbit
LEO
Country
Flag of USUS
Related business
Manufacturer
SpaceX/Seattle
Mission
Partially operational Commercial Communications
Bus & Motor
STARLINK, Unknown motor
Mass
260 kg wet, ~248 kg dry
Launch date (UTC)
2020-06-13 (6 years ago)
Launch vehicle
FALCON 9
Launch site
Air Force Eastern Test Range (AFETR)
Object type
Payload
Rocket body
Debris
Shape & HBR
Box + 1 Pan, 10.1 m
Radar Cross Section
13.562 m², Large (>1 m²)

Expand to show TLE details & history
Last TLE update: 16 hours ago

TLE from 16 hours ago
0 STARLINK-1464
1 45751U 20038X   26073.03250762  .00042412  00000-0  90130-3 0  9997
2 45751  53.0511 183.9617 0002587 294.9550  65.1186 15.44605393317323
Epoch: 2026-03-14T00:46Z
TLE epoch observation values (Epoch: 2026-03-14T00:46:48.658Z)
Latitude
-0.00007°
Longitude
0.5994°
Altitude
432.69 km
Speed
7.654 km/s
True Right ascension
12h 15m 50s
True Declination
0° 00' 00"
Sunlit
Object was in full shadow at epoch
Visualization orbit readout
Latitude
Unknown
Longitude
Unknown
Altitude
Unknown
Speed
Unknown
Apparent Right ascension
Unknown
Apparent Declination
Unknown
Sunlit
N/A
Visualization observer readout
Local Sidereal Time
21:19:14
Azimuth
Unknown
Elevation
Unknown
Doppler factor
Unknown
Orbital elements
Apogee altitude
434.575 km
Perigee altitude
431.051 km
Semi-major axis
6,810.95 km
Eccentricity
0.00026
Inclination
53.0511°
RAAN
183.9617°
Arg. of periapsis
294.955°
True anomaly
65.1455°
Mean anomaly
65.1186°
Eccentric anomaly
65.13205°
Mean motion
3.86128 °/min
Orbital period
93.23 mins
BSTAR
0.0009013
Loading maneuver chart data...
Computing Atmospheric mass density...

Documentation

Showing up to 5 results
|